sat.trackr.live / text

‹ back to catalog

STARLINK-5055

NORAD 54015 · 2022-125BD

PAYLOAD ACTIVE UNKNOWN

§ Identity

Operator
Country
US
Launch date
2022-10-05
Launch site
AFWTR
Launch vehicle
Mass (kg)
RCS (m²)

Purposes: comms

External: N2YO · Heavens-Above · Gunter

§ Orbital elements

Epoch: 2026-09-20T11:57:11.854368Z

Period
87.69 min
Inclination
53.2005°
Eccentricity
0.0004916
Mean motion
16.42165872 rev/d
Perigee alt
156.8 km
Apogee alt
163.3 km
Semi-major
6,538.2 km
B*
4.5620e-4
RAAN
15.8216°
Arg perigee
291.2485°
Mean anomaly
68.8039°
Rev number
21,948

§ Raw data

STARLINK-50551 54015U 22125BD  26263.49805387  .08251091  12438-4  45620-3 0  99982 54015  53.2005  15.8216 0004916 291.2485  68.8039 16.42165872219486

JSON: /api/v1/satellites/54015 · /tle

For live sub-satellite position, see the globe view (requires WebGL).

§ Visibility from observer

Set your observer location to see the next 7 days of passes ≥ 10°. The values pass through the URL so the page stays shareable.

No JS? Fill the form by hand. The geolocation button needs JavaScript.